STARLINK-34637

Last updated on Fri Aug 08 2025 00:02:05 GMT+0000 (Coordinated Universal Time)

1 64776U 25147X 25218.91668981 .00029373 00000+0 74215-3 0 9990 2 64776 53.1593 163.1612 0001293 88.1069 120.8004 15.39591981 5826
UTC large
Height (km)
Speed (km/s)
/
Latitude / Longitude
Inclination (degrees)
Orbital Period (minutes)
Azimuth
Elevation
Range (km)
Doppler Factor

Next 0 passes for location: London (51.5072 / 0.1276)

Sorry there are no passes over London.